{"data":{"norad_id":62927,"intl_designator":"2025-027W","name":"STARLINK-32891","alt_names":[],"object_type":"PAYLOAD","status":"ACTIVE","operator":null,"country":"US","launch_date":"2025-02-08","launch_site_code":"AFETR","launch_vehicle":null,"mission":null,"orbit_class":"UNKNOWN","rcs_meters":null,"size_class":null,"mass_kg":null,"dimensions":null,"purposes":["comms"],"wikipedia_slug":null,"has_3d_model":false,"image_url":null,"decayed_at":null,"tle_current":{"epoch":"2026-09-20T07:21:38.244096Z","epoch_age_seconds":181918,"freshness":"STALE","line1":"1 62927U 25027W   26263.30669264  .00010777  00000+0  40050-3 0  9990","line2":"2 62927  43.0006 110.0167 0000757 283.5797  76.4970 15.27586519 91425","mean_motion":15.27586519,"eccentricity":7.57e-5,"inclination_deg":43.0006,"raan_deg":110.0167,"arg_perigee_deg":283.5797,"mean_anomaly_deg":76.497,"bstar":0.0004005,"rev_number":9142,"period_min":94.266346428788,"perigee_km":482.51018556808,"apogee_km":483.54896618767,"semimajor_km":6861.1665758779,"source":"CELESTRAK","updated_at":"2026-09-22T09:00:49.710745Z"}}}